EST,Max TemperatureF,Mean TemperatureF,Min TemperatureF,Max Dew PointF,MeanDew PointF,Min DewpointF,Max Humidity, Mean Humidity, Min Humidity, Max Sea Level PressureIn, Mean Sea Level PressureIn, Min Sea Level PressureIn, Max VisibilityMiles, Mean VisibilityMiles, Min VisibilityMiles, Max Wind SpeedMPH, Mean Wind SpeedMPH, Max Gust SpeedMPH,PrecipitationIn, CloudCover, Events, WindDirDegrees
2012-12-1,64,52,39,46,42,38,93,77,48,30.41,30.33,30.28,10,8,3,6,0,,0.00,2,,190
2012-12-2,69,56,44,50,46,40,90,70,47,30.35,30.29,30.22,10,10,6,10,2,16,0.00,3,,224
2012-12-3,71,58,46,49,47,44,90,67,44,30.31,30.25,30.19,10,10,10,8,1,16,0.00,2,,225
2012-12-4,69,58,48,54,49,44,86,69,49,30.28,30.22,30.16,10,10,9,12,2,18,0.01,7,Rain,233
2012-12-5,62,52,41,57,42,30,94,63,30,30.30,30.21,30.15,10,10,9,8,3,,0.01,5,Rain,53
2012-12-6,52,46,41,45,40,34,86,75,61,30.22,30.17,30.12,10,10,9,4,1,,0.03,7,Rain,70
2012-12-7,62,53,44,49,46,41,93,78,59,30.12,30.05,29.97,10,10,10,5,1,,0.00,7,,265
2012-12-8,69,62,55,55,51,48,88,73,54,30.03,29.99,29.94,10,10,10,7,2,,0.00,6,Rain,238
2012-12-9,68,64,59,57,55,53,90,78,65,30.04,29.98,29.88,10,10,7,8,1,22,0.00,8,Rain,226
2012-12-10,62,53,43,57,52,34,100,89,71,29.94,29.77,29.66,10,6,1,7,3,17,1.39,8,Rain,210
2012-12-11,42,37,32,34,28,25,82,71,60,30.27,30.12,29.93,10,10,10,7,2,,0.00,5,,40
2012-12-12,48,39,30,27,24,18,82,58,33,30.37,30.33,30.28,10,10,10,9,2,16,0.00,0,,47
2012-12-13,53,40,28,34,29,24,88,71,47,30.44,30.38,30.34,10,10,10,4,0,,0.00,0,,-1
2012-12-14,55,42,28,38,31,25,100,85,45,30.45,30.36,30.25,10,6,0,4,0,,0.00,3,Fog,90
2012-12-15,59,48,37,49,40,35,92,75,48,30.24,30.11,30.01,10,8,2,8,1,,0.20,5,Rain,248
2012-12-16,57,54,50,54,50,48,100,92,86,30.02,29.94,29.84,10,6,2,7,2,,0.92,7,Rain,233
2012-12-17,57,52,46,55,51,44,100,93,82,29.84,29.73,29.64,10,6,1,10,2,25,0.45,7,Rain,240
2012-12-18,54,46,39,46,37,32,100,70,45,29.99,29.89,29.71,10,10,6,8,3,,0.00,3,,230
2012-12-19,62,49,36,43,37,32,89,71,44,30.13,30.07,29.99,10,10,10,6,2,,0.00,0,,190
2012-12-20,53,46,39,49,42,25,100,88,53,30.03,29.76,29.57,10,5,1,15,2,30,1.37,7,Rain,228
2012-12-21,42,38,33,26,19,12,60,50,38,30.21,30.01,29.82,10,10,9,16,10,30,0.00,5,Snow,253
2012-12-22,45,35,25,21,16,13,75,52,30,30.38,30.29,30.22,10,10,10,7,2,,0.00,0,,217
2012-12-23,45,35,25,40,28,20,93,74,43,30.22,30.15,30.06,10,8,2,6,1,,0.15,4,Rain,257
2012-12-24,48,45,42,47,43,39,100,93,87,30.04,29.93,29.85,10,3,0,8,2,,0.85,8,Fog-Rain,217
2012-12-25,50,47,44,45,43,42,100,89,77,30.07,30.00,29.85,10,6,0,8,2,,0.36,8,Fog-Rain,61
2012-12-26,50,42,34,47,37,27,100,80,65,30.02,29.64,29.44,10,9,2,13,8,26,0.66,8,Rain,251
2012-12-27,36,34,33,28,26,25,82,73,67,30.19,30.14,29.99,10,10,10,8,4,,0.00,8,,340
2012-12-28,41,37,33,37,29,26,93,75,62,30.18,30.07,29.84,10,10,5,7,3,,0.08,8,Rain,53
2012-12-29,41,37,33,38,33,21,93,81,61,30.30,29.94,29.77,10,9,4,10,6,20,0.10,8,Rain-Snow,254
2012-12-30,39,33,27,24,20,16,81,63,45,30.57,30.45,30.31,10,10,10,10,3,,0.00,4,,349
2012-12-31,42,34,27,34,26,23,88,70,49,30.44,30.32,30.14,10,10,8,7,1,,0.00,4,Rain,268